Weather History for Wooster, OH

Change the Weather History Date:

Thursday, May 16, 2013

  Actual Average Record
Temperature  
Mean Temperature 66 °F -  
Max Temperature 80 °F 67 °F 84 °F (1998)
Min Temperature 53 °F 46 °F 34 °F (2000)
Cooling Degree Days 1    
Growing Degree Days 16 (Base 50)    
Moisture  
Dew Point 48 °F    
Average Humidity 55    
Maximum Humidity 89    
Minimum Humidity 28    
Precipitation  
Precipitation 0.00 in - - ()
Sea Level Pressure  
Sea Level Pressure 29.88 in    
Wind  
Wind Speed 3 mph (West)    
Max Wind Speed 8 mph    
Max Gust Speed -    
Visibility 10 miles    
Events Thunderstorm    
Averages and records for this station are not official NWS values.
T = Trace of Precipitation, MM = Missing Value Source: NWS Daily Summary

Daily Weather History Graph

Daily Weather History Graph

Search for Another Location

Airport:

Trip Planner

Search our weather history database for the weather conditions in past years. The results will help you decide how hot, cold, wet, or windy it might be!

Date:

Astronomy

May. 16, 2013 Rise Set
Actual Time 6:08 AM EDT 8:39 PM EDT
Civil Twilight 5:37 AM EDT 9:10 PM EDT
Nautical Twilight 4:58 AM EDT 9:49 PM EDT
Astronomical Twilight 4:15 AM EDT 10:33 PM EDT
Moon 11:41 AM EDT (5/16) 12:58 AM EDT (5/16)
Length of Visible Light 15h 33m
Length of Day
14h 30m
Waxing Crescent, 35% of the Moon is Illuminated
May 16
Waxing Crescent
May 18
First Quarter
May 25
Full
May 31
Last Quarter
Jun 8
New

Hourly Weather History & Observations

Time (EDT) Temp. Dew Point Humidity Pressure Visibility Wind Dir Wind Speed Gust Speed Precip Events Conditions
12:56 AM 57.9 °F 53.1 °F 84% 29.80 in 10.0 mi Calm Calm - N/A   Mostly Cloudy
1:31 AM 60.8 °F 53.6 °F 77% 29.82 in 10.0 mi Calm Calm - N/A Thunderstorm Overcast
1:46 AM 62.6 °F 53.6 °F 72% 29.82 in 10.0 mi SW 3.5 mph - N/A Thunderstorm Overcast
1:56 AM 63.0 °F 53.1 °F 70% 29.80 in 10.0 mi WSW 3.5 mph - N/A Thunderstorm Overcast
2:05 AM 64.4 °F 53.6 °F 68% 29.82 in 10.0 mi WSW 3.5 mph - N/A Thunderstorm Overcast
2:27 AM 62.6 °F 51.8 °F 68% 29.82 in 10.0 mi West 5.8 mph - N/A   Mostly Cloudy
2:56 AM 64.9 °F 51.1 °F 61% 29.81 in 10.0 mi West 8.1 mph - N/A   Overcast
3:56 AM 62.1 °F 52.0 °F 70% 29.81 in 10.0 mi West 3.5 mph - N/A   Mostly Cloudy
4:56 AM 55.9 °F 50.0 °F 80% 29.83 in 10.0 mi WSW 3.5 mph - N/A   Clear
5:56 AM 57.0 °F 48.9 °F 74% 29.83 in 10.0 mi Calm Calm - 0.00 in   Clear
6:56 AM 53.1 °F 50.0 °F 89% 29.86 in 10.0 mi West 4.6 mph - N/A   Clear
7:56 AM 62.1 °F 48.9 °F 62% 29.88 in 10.0 mi NNW 6.9 mph - N/A   Clear
8:56 AM 66.0 °F 48.0 °F 52% 29.89 in 10.0 mi NNW 6.9 mph - N/A   Clear
9:56 AM 69.1 °F 45.0 °F 42% 29.90 in 10.0 mi Calm Calm - N/A   Clear
10:56 AM 73.0 °F 46.0 °F 38% 29.92 in 10.0 mi NNW 8.1 mph - N/A   Clear
11:56 AM 73.9 °F 45.0 °F 35% 29.92 in 10.0 mi West 4.6 mph - N/A   Clear
12:56 PM 75.0 °F 44.1 °F 33% 29.92 in 10.0 mi WNW 5.8 mph - N/A   Clear
1:56 PM 75.9 °F 46.0 °F 35% 29.92 in 10.0 mi NW 5.8 mph - N/A   Clear
2:56 PM 77.0 °F 46.0 °F 33% 29.92 in 10.0 mi SW 8.1 mph - N/A   Clear
3:56 PM 79.0 °F 45.0 °F 30% 29.92 in 10.0 mi WNW 4.6 mph - N/A   Clear
4:56 PM 79.0 °F 43.0 °F 28% 29.92 in 10.0 mi South 6.9 mph - N/A   Partly Cloudy
5:56 PM 79.0 °F 45.0 °F 30% 29.93 in 10.0 mi North 4.6 mph - N/A   Mostly Cloudy
6:56 PM 77.0 °F 44.1 °F 31% 29.92 in 10.0 mi WSW 5.8 mph - N/A   Partly Cloudy
7:56 PM 73.0 °F 45.0 °F 37% 29.92 in 10.0 mi SW 4.6 mph - N/A   Clear
8:56 PM 68.0 °F 45.0 °F 43% 29.94 in 10.0 mi WSW 5.8 mph - N/A   Clear
9:56 PM 64.0 °F 48.0 °F 56% 29.96 in 10.0 mi SSW 3.5 mph - N/A   Clear
10:56 PM 57.0 °F 46.9 °F 69% 29.98 in 10.0 mi Calm Calm - N/A   Clear
11:56 PM 55.0 °F 48.0 °F 77% 29.98 in 10.0 mi Calm Calm - N/A   Clear